Regional Weather Roundup
Issued by NWS

Home | Current Version | Previous Version | Graphics & Text | Print | Product List | Glossary On
Versions: 1 2 3 4 5 6 7 8 9 10 11 12 13 14 15 16 17 18 19 20 21 22 23 24 25 26 27 28 29 30 31 32 33 34 35 36 37 38 39 40 41 42 43 44 45 46 47 48 49 50
000
ASUS45 KBOU 270007
RWRCO

WEATHER ROUNDUP FOR COLORADO
NATIONAL WEATHER SERVICE DENVER/BOULDER CO
600 PM MDT TUE AUG 26 2014

NOTE: "FAIR" INDICATES FEW OR NO CLOUDS BELOW 12000 FEET WITH NO
SIGNIFICANT WEATHER AND/OR OBSTRUCTIONS TO VISIBILITY.

COZ001>005-013-030-031-270100-
...NORTHWEST COLORADO...

CITY           SKY/WX    TMP DP  RH WIND       PRES   REMARKS
CRAIG          PTSUNNY   70  47  43 E13       30.24F
HAYDEN         PTSUNNY   64  46  52 SE9       30.27F
MEEKER         PTSUNNY   64  50  60 SW5       30.25F
MOUNT WERNER   NOT AVBL
STEAMBOAT SPGS PTSUNNY   62  49  63 E7        30.30S
WALDEN         CLOUDY    61  36  39 S3        30.36S
$$

COZ006>008-011-270100-
...WEST CENTRAL VALLEYS...

CITY           SKY/WX    TMP DP  RH WIND       PRES   REMARKS
GRAND JUNCTION PTSUNNY   76  49  38 E9        30.12F
MONTROSE       CLOUDY    66  53  63 S13       30.25R
EAGLE          CLOUDY    63  54  72 VRB7      30.31F
RIFLE          PTSUNNY   68  53  58 NW3       30.21S
DELTA          CLOUDY    71  56  58 SW3       30.18R
NUCLA          CLOUDY    68  48  49 E16       30.25R
$$

COZ017>023-064>068-270100-
...SOUTHWEST COLORADO...

CITY           SKY/WX    TMP DP  RH WIND       PRES   REMARKS
DURANGO        CLOUDY    72  44  36 W9        30.24S
CORTEZ         LGT RAIN  64  56  75 W6        30.22R
PAGOSA SPRINGS CLOUDY    68  38  33 S3        30.33S
TELLURIDE      NOT AVBL
WOLF CREEK PAS CLOUDY    46  39  76 SW12      30.59S
$$

COZ009-010-012-014-032>034-037-058>063-270100-
...CENTRAL COLORADO...

CITY           SKY/WX    TMP DP  RH WIND       PRES   REMARKS
ASPEN          CLOUDY    62  43  49 N5        30.36R
BUENA VISTA    CLOUDY    57  50  76 SE16      30.36R
COPPER MTN     TSTM      45  41  87 W17       30.60F
BERTHOUD PASS  TSTM      36  34  93 N6        30.66S VSB<1/4
COTTONWOOD PAS CLOUDY    54  46  76 SE18G26   30.45S
GUNNISON       CLOUDY    64  45  48 SW10      30.31R
KREMMLING      RAIN      59  48  67 SE8       30.37R
LEADVILLE      CLOUDY    53  41  63 N15G24    30.45R
MONARCH PASS   SNOW      43  43 100 NE23      30.68F VSB<1/4
SALIDA         CLOUDY    58  53  86 E12G22    30.43R
SUNLIGHT       CLOUDY    50  46  87 CALM      30.54F
WILKERSON PASS NOT AVBL
$$

COZ069>075-270100-
...SAN LUIS VALLEY/SANGRE DE CRISTO MOUNTAINS...

CITY           SKY/WX    TMP DP  RH WIND       PRES   REMARKS
ALAMOSA        LGT RAIN  57  51  80 SE15      30.36F
LA VETA PASS   NOT AVBL
SAGUACHE       CLOUDY    59  52  77 S9G20     30.38S
$$

COZ035-036-038>040-270100-
...NORTHERN COLORADO FRONT RANGE...

CITY           SKY/WX    TMP DP  RH WIND       PRES   REMARKS
DENVER INTL AP CLOUDY    69  59  70 CALM      30.18F
DMNS CITY PARK   N/A     68  58  70 SE2       30.19R
AURORA         PTSUNNY   68  54  60 CALM      30.22S
FRONT RANGE AP NOT AVBL
ERIE MUNI ARPT PTSUNNY   73  52  47 N5        30.18S
BOULDER MUN AP PTSUNNY   68  55  64 CALM      30.20R
CENTENNIAL     PTSUNNY   70  50  49 NE3       30.22S
BROOMFIELD     CLOUDY    72  55  56 N9        30.21S
FORT COLLINS   CLOUDY    72  55  56 S7        30.18F
LONGMONT       LGT RAIN  71  59  67 N5        30.19F
$$

COZ041-046-047-076>085-087-088-270100-
...PIKES PEAK/PALMER DIVIDE AND SOUTHERN FOOTHILLS...

CITY           SKY/WX    TMP DP  RH WIND       PRES   REMARKS
COLO. SPRINGS  LGT RAIN  68  55  63 SE7       30.26R
A. F. ACADEMY  CLOUDY    64  54  69 SW3       30.27R
ELLICOTT       CLOUDY    70  54  56 MISG      30.24F
FALCON         CLOUDY    66  56  70 S6        30.30R
FORT CARSON    CLOUDY    70  55  60 S6        30.23S
LIMON          CLOUDY    72  59  63 SE12      30.19F
MONUMENT HILL  CLOUDY    63  52  67 NW3       30.30R
TRINIDAD       NOT AVBL
$$

COZ042>045-048>051-090-091-270100-
...NORTHEAST COLORADO...

CITY           SKY/WX    TMP DP  RH WIND       PRES   REMARKS
GREELEY ARPT   CLOUDY    72  52  49 CALM      30.17S
AKRON          CLOUDY    74  60  61 S12       30.15F
BURLINGTON     PTSUNNY   79  60  52 SE14      30.13R
WRAY             N/A     81  60  49 SE12      30.11S
STERLING       CLOUDY    79  66  65 SE3       30.11R
HOLYOKE        MOSUNNY   79  63  57 SE10      30.11F
FORT MORGAN    CLOUDY    74  61  63 CALM      30.16R
$$

COZ086-089-092>099-270100-
...SOUTHEAST COLORADO...

CITY           SKY/WX    TMP DP  RH WIND       PRES   REMARKS
PUEBLO         CLOUDY    74  60  61 SE10      30.16R
LA JUNTA       LGT RAIN  66  62  87 W14       30.16R
LAMAR          TSTM      68  59  73 W12G23    30.16R
SPRINGFIELD      N/A     69  62  78 SW10      30.16R
$$


USA.gov is the U.S. government's official web portal to all federal, state and local government web resources and services.